User: anonymous   Login
Location: Newark
(3.0500°N, 36.0167°E)
Time: 22:54:27
(UTC+00:00)
Language:

deb Explorer IX - Orbit

View from above orbital plane
View from above orbital plane
View from above satellite
View from above satellite

Ground track
Ground track

The orbit data is extracted from the following two-line orbital elements,

1    85U 61004C   19237.69317087  .00001372  00000-0  30837-3 0  9994
2    85  38.7759  93.7109 0395307 322.5700  34.8111 14.19999633888870
Epoch (UTC): 25 August 2019 16:38:09
Eccentricity: 0.0395307
inclination: 38.7759°
perigee height: 540 km
apogee height: 1110 km
right ascension of ascending node: 93.7109°
argument of perigee: 322.5700°
revolutions per day: 14.19999633
mean anomaly at epoch: 34.8111°
orbit number at epoch: 88887

The dashed part of the orbit path shows where the satellite is in the earth's shadow,  

DLR